Tianping-2A

operational
NORAD ID: 52153 Int'l Des: 2022-032 Owner: CHFEN Country: CN
LEOCIRCULARRETROGRADESSO

关于 Tianping-2A

正在加载描述...

实时位置

正在加载3D地球...

即将过境

高度历史

Altitude vs Time

uPlot chart will show altitude changes over time

两行轨道根数

1 52153U 22032A 26062.20590266 .00002274 00000-0 20293-3 0 9995
2 52153 97.6023 102.9540 0010609 164.5455 195.6093 14.96891765213984
Epoch: Mar 3, 2026 • Age: 11 hours

当前状态

高度 578.2 km
速度 7.57 km/s
星下点 -19.77°S, 40.43°W
发射日期 Mar 30, 2022
运行时间 3.9 years
类型 other

技术详情

分类 Payload
质量 40.00 kg
干质量 40.00 kg
总质量 40.00 kg
长度 0.40 m
直径 0.40 m
跨度 1.20 m
形状 Box+2 pan
制造商 CHFEN/CASIC
平台类型 TP-2
阶段状态 In Orbit
所有者/国家 CHFEN/CN

大型星座

Loading constellations...